SKW3411 KEUG-KPDX

Flight info

Callsign SKW3411
Flight time 0h 32m
Altitude 19000
Route CITYY TMBRS4
Aircraft E175/M-SDE3GILORVW/S

Departure

Time 2026-04-15 21:30
Airport Eugene Airport (KEUG)

Arrival

Time 2026-04-15 22:02
Airport Portland International Airport (KPDX)
Time Latitude Longitude Altitude Speed Heading
2026-04-15 20:45 44.11893 -123.21357 284 ft 0 kts 93°
2026-04-15 21:18 44.11894 -123.21369 363 ft 4 kts 91°
2026-04-15 21:18 44.11889 -123.21405 363 ft 4 kts 60°
2026-04-15 21:19 44.11877 -123.21437 365 ft 4 kts 76°
2026-04-15 21:19 44.11874 -123.21472 362 ft 4 kts 106°
2026-04-15 21:19 44.11881 -123.21504 360 ft 1 kts 99°
2026-04-15 21:19 44.11881 -123.21534 359 ft 4 kts 54°
2026-04-15 21:20 44.11867 -123.21537 364 ft 2 kts 334°
2026-04-15 21:20 44.11847 -123.21516 367 ft 4 kts 311°
2026-04-15 21:20 44.11843 -123.21509 368 ft 3 kts 312°
2026-04-15 21:22 44.11844 -123.21512 367 ft 2 kts 313°
2026-04-15 21:22 44.11859 -123.21528 364 ft 3 kts 326°
2026-04-15 21:22 44.11879 -123.21543 359 ft 3 kts 334°
2026-04-15 21:23 44.11899 -123.21556 364 ft 2 kts 336°
2026-04-15 21:23 44.11912 -123.21562 361 ft 2 kts 345°
2026-04-15 21:23 44.11928 -123.21565 363 ft 3 kts 356°
2026-04-15 21:23 44.11952 -123.21586 360 ft 6 kts 298°
2026-04-15 21:24 44.11954 -123.21661 356 ft 9 kts 270°
2026-04-15 21:24 44.12002 -123.21703 362 ft 11 kts 359°
2026-04-15 21:24 44.12085 -123.21704 359 ft 13 kts 358°
2026-04-15 21:24 44.12178 -123.21706 357 ft 14 kts 360°
2026-04-15 21:25 44.12279 -123.21706 360 ft 14 kts 359°
2026-04-15 21:25 44.12375 -123.21709 359 ft 14 kts 359°
2026-04-15 21:25 44.12465 -123.21709 360 ft 13 kts 359°
2026-04-15 21:25 44.12553 -123.21710 364 ft 13 kts 359°
2026-04-15 21:26 44.12644 -123.21712 364 ft 14 kts 358°
2026-04-15 21:26 44.12756 -123.21715 355 ft 19 kts 359°
2026-04-15 21:26 44.12899 -123.21716 356 ft 22 kts 360°
2026-04-15 21:26 44.13061 -123.21718 359 ft 25 kts 358°
2026-04-15 21:27 44.13240 -123.21721 357 ft 26 kts
2026-04-15 21:27 44.13424 -123.21726 359 ft 26 kts
2026-04-15 21:27 44.13508 -123.21696 355 ft 8 kts 32°
2026-04-15 21:27 44.13524 -123.21695 358 ft 0 kts 308°
2026-04-15 21:28 44.13529 -123.21706 360 ft 4 kts 303°
2026-04-15 21:29 44.13537 -123.21771 355 ft 9 kts 268°
2026-04-15 21:29 44.13535 -123.21869 355 ft 12 kts 270°
2026-04-15 21:29 44.13521 -123.21917 360 ft 3 kts 193°
2026-04-15 21:29 44.13435 -123.21915 357 ft 42 kts 180°
2026-04-15 21:30 44.12855 -123.21905 362 ft 124 kts 180°
2026-04-15 21:30 44.11783 -123.21872 627 ft 173 kts 181°
2026-04-15 21:30 44.10480 -123.21744 1329 ft 202 kts 178°
2026-04-15 21:30 44.09027 -123.21527 1750 ft 213 kts 176°
2026-04-15 21:31 44.06204 -123.20939 2075 ft 195 kts 177°
2026-04-15 21:31 44.04788 -123.20619 2722 ft 216 kts 176°
2026-04-15 21:32 44.01697 -123.20004 4401 ft 231 kts 177°
2026-04-15 21:32 44.00066 -123.19664 5145 ft 243 kts 178°
2026-04-15 21:32 43.98340 -123.19372 5934 ft 248 kts 179°
2026-04-15 21:32 43.96636 -123.19087 6887 ft 244 kts 179°
2026-04-15 21:33 43.94991 -123.18653 8433 ft 239 kts 168°
2026-04-15 21:33 43.93440 -123.17785 9717 ft 252 kts 160°
2026-04-15 21:33 43.91811 -123.16513 10470 ft 272 kts 151°
2026-04-15 21:33 43.90461 -123.14734 10737 ft 269 kts 130°
2026-04-15 21:34 43.89627 -123.12349 11800 ft 277 kts 109°
2026-04-15 21:34 43.89266 -123.09702 12991 ft 285 kts 94°
2026-04-15 21:34 43.89422 -123.06895 13591 ft 310 kts 75°
2026-04-15 21:34 43.90230 -123.04026 14326 ft 320 kts 50°
2026-04-15 21:35 43.91882 -123.02026 15157 ft 317 kts 18°
2026-04-15 21:35 43.93969 -123.01111 16061 ft 314 kts
2026-04-15 21:35 43.96068 -123.00387 17139 ft 319 kts
2026-04-15 21:35 43.98229 -122.99649 18169 ft 319 kts
2026-04-15 21:36 44.00336 -122.99205 18523 ft 297 kts 349°
2026-04-15 21:36 44.02357 -122.99385 18351 ft 293 kts 345°
2026-04-15 21:36 44.04472 -122.99239 18880 ft 312 kts 356°
2026-04-15 21:36 44.06708 -122.98869 18950 ft 339 kts 355°
2026-04-15 21:37 44.09137 -122.98407 19102 ft 364 kts
2026-04-15 21:37 44.11703 -122.97688 19146 ft 383 kts
2026-04-15 21:37 44.14345 -122.96841 18987 ft 403 kts
2026-04-15 21:37 44.17124 -122.95981 18996 ft 413 kts
2026-04-15 21:38 44.19955 -122.95145 18999 ft 417 kts
2026-04-15 21:38 44.22796 -122.94364 18996 ft 416 kts
2026-04-15 21:38 44.25643 -122.93638 19004 ft 416 kts
2026-04-15 21:38 44.28489 -122.92858 19003 ft 417 kts
2026-04-15 21:39 44.31333 -122.92028 19015 ft 415 kts
2026-04-15 21:39 44.34141 -122.91214 18993 ft 411 kts
2026-04-15 21:39 44.36947 -122.90428 18986 ft 411 kts
2026-04-15 21:39 44.39747 -122.89669 18997 ft 411 kts
2026-04-15 21:40 44.42556 -122.88906 18992 ft 412 kts
2026-04-15 21:40 44.45355 -122.87907 19021 ft 420 kts 10°
2026-04-15 21:40 44.48097 -122.86362 19005 ft 428 kts 17°
2026-04-15 21:40 44.50794 -122.84569 18974 ft 429 kts 18°
2026-04-15 21:41 44.53513 -122.82861 18990 ft 427 kts 14°
2026-04-15 21:41 44.56261 -122.81364 18966 ft 413 kts 12°
2026-04-15 21:41 44.58872 -122.80043 18939 ft 386 kts 11°
2026-04-15 21:41 44.61326 -122.78810 18895 ft 365 kts 11°
2026-04-15 21:42 44.63631 -122.77611 19012 ft 342 kts 11°
2026-04-15 21:42 44.65844 -122.76436 18994 ft 341 kts 11°
2026-04-15 21:42 44.68089 -122.75252 19033 ft 348 kts 11°
2026-04-15 21:42 44.70359 -122.74043 19062 ft 350 kts 11°
2026-04-15 21:43 44.72644 -122.72816 18942 ft 353 kts 12°
2026-04-15 21:43 44.74966 -122.71576 18378 ft 356 kts 12°
2026-04-15 21:43 44.77240 -122.70340 17933 ft 349 kts 12°
2026-04-15 21:43 44.79494 -122.69159 17519 ft 337 kts
2026-04-15 21:44 44.81722 -122.68630 17141 ft 320 kts 356°
2026-04-15 21:44 44.83936 -122.68361 16696 ft 317 kts 357°
2026-04-15 21:44 44.86121 -122.68131 16268 ft 315 kts 355°
2026-04-15 21:44 44.88311 -122.67981 15845 ft 314 kts 355°
2026-04-15 21:45 44.90489 -122.67829 15437 ft 313 kts 356°
2026-04-15 21:45 44.92656 -122.67626 15015 ft 310 kts 357°
2026-04-15 21:45 44.94793 -122.67395 14605 ft 307 kts 358°
2026-04-15 21:45 44.96912 -122.67155 14200 ft 304 kts 358°
2026-04-15 21:46 44.99021 -122.66930 13747 ft 302 kts 358°
2026-04-15 21:46 45.01092 -122.66718 13373 ft 297 kts 357°
2026-04-15 21:46 45.03151 -122.66514 12968 ft 296 kts 357°
2026-04-15 21:46 45.05196 -122.66308 12594 ft 295 kts 357°
2026-04-15 21:47 45.07245 -122.66104 12188 ft 296 kts 358°
2026-04-15 21:47 45.09301 -122.65898 11798 ft 295 kts 358°
2026-04-15 21:47 45.11342 -122.65690 11404 ft 293 kts 358°
2026-04-15 21:47 45.13371 -122.65480 11025 ft 291 kts 358°
2026-04-15 21:48 45.15386 -122.65274 10645 ft 290 kts 358°
2026-04-15 21:48 45.17388 -122.65071 10255 ft 286 kts 358°
2026-04-15 21:48 45.19362 -122.64868 9876 ft 283 kts 358°
2026-04-15 21:48 45.21308 -122.64668 9524 ft 278 kts 358°
2026-04-15 21:49 45.23222 -122.64471 9158 ft 274 kts 358°
2026-04-15 21:49 45.25084 -122.64037 8865 ft 276 kts 16°
2026-04-15 21:49 45.26808 -122.62804 8501 ft 278 kts 25°
2026-04-15 21:49 45.28441 -122.61334 8218 ft 277 kts 28°
2026-04-15 21:50 45.30036 -122.59788 7892 ft 279 kts 30°
2026-04-15 21:50 45.31628 -122.58191 7524 ft 281 kts 30°
2026-04-15 21:50 45.33252 -122.56672 7252 ft 279 kts 28°
2026-04-15 21:50 45.34901 -122.55203 6872 ft 278 kts 25°
2026-04-15 21:51 45.36555 -122.53837 6621 ft 272 kts 24°
2026-04-15 21:51 45.38188 -122.52474 6271 ft 271 kts 27°
2026-04-15 21:51 45.39750 -122.51063 6162 ft 261 kts 29°
2026-04-15 21:51 45.41234 -122.49653 6012 ft 253 kts 29°
2026-04-15 21:52 45.42704 -122.48268 5783 ft 253 kts 32°
2026-04-15 21:52 45.43810 -122.46368 5686 ft 251 kts 67°
2026-04-15 21:52 45.43945 -122.43982 5562 ft 239 kts 109°
2026-04-15 21:52 45.43286 -122.41930 5456 ft 221 kts 129°
2026-04-15 21:53 45.42380 -122.40214 5212 ft 214 kts 135°
2026-04-15 21:53 45.41497 -122.38557 5096 ft 204 kts 131°
2026-04-15 21:53 45.40735 -122.36937 5012 ft 189 kts 136°
2026-04-15 21:53 45.40073 -122.35378 4879 ft 187 kts 107°
2026-04-15 21:54 45.40238 -122.33568 4796 ft 188 kts 56°
2026-04-15 21:54 45.41112 -122.32187 4948 ft 192 kts 43°
2026-04-15 21:54 45.42020 -122.30732 4785 ft 200 kts 45°
2026-04-15 21:54 45.42993 -122.29194 4235 ft 213 kts 45°
2026-04-15 21:55 45.44053 -122.27785 3973 ft 203 kts 22°
2026-04-15 21:55 45.45369 -122.27501 3612 ft 188 kts 339°
2026-04-15 21:55 45.46421 -122.28399 3282 ft 172 kts 303°
2026-04-15 21:55 45.47118 -122.29705 3012 ft 165 kts 302°
2026-04-15 21:56 45.47933 -122.30837 2695 ft 166 kts 317°
2026-04-15 21:56 45.48776 -122.31913 2358 ft 161 kts 298°
2026-04-15 21:56 45.49245 -122.33294 2198 ft 149 kts 287°
2026-04-15 21:56 45.49673 -122.34614 2051 ft 146 kts 296°
2026-04-15 21:57 45.50253 -122.35724 1892 ft 133 kts 297°
2026-04-15 21:57 45.50736 -122.36789 1700 ft 123 kts 293°
2026-04-15 21:57 45.51097 -122.37975 1664 ft 143 kts 285°
2026-04-15 21:57 45.51537 -122.39296 1807 ft 151 kts 295°
2026-04-15 21:58 45.52092 -122.40579 2048 ft 146 kts 294°
2026-04-15 21:58 45.52417 -122.41411 2259 ft 147 kts 294°
2026-04-15 21:58 45.53129 -122.43106 2158 ft 144 kts 295°
2026-04-15 21:58 45.53614 -122.44267 1912 ft 128 kts 291°
2026-04-15 21:59 45.53871 -122.44993 1771 ft 120 kts 290°
2026-04-15 21:59 45.54204 -122.46024 1520 ft 111 kts 289°
2026-04-15 21:59 45.54552 -122.46955 1402 ft 105 kts 296°
2026-04-15 21:59 45.54955 -122.47880 1286 ft 115 kts 297°
2026-04-15 22:00 45.55371 -122.48909 1211 ft 122 kts 293°
2026-04-15 22:00 45.55780 -122.49992 1114 ft 126 kts 294°
2026-04-15 22:00 45.56204 -122.51109 933 ft 130 kts 296°
2026-04-15 22:00 45.56634 -122.52231 732 ft 122 kts 295°
2026-04-15 22:01 45.57018 -122.53234 579 ft 112 kts 297°
2026-04-15 22:01 45.57404 -122.54242 415 ft 117 kts 297°
2026-04-15 22:01 45.57798 -122.55226 283 ft 111 kts 297°
2026-04-15 22:01 45.58163 -122.56186 150 ft 111 kts 298°
2026-04-15 22:02 45.58540 -122.57145 39 ft 108 kts 296°
2026-04-15 22:02 45.58850 -122.57944 30 ft 74 kts 298°
2026-04-15 22:02 45.59014 -122.58401 30 ft 21 kts 284°
2026-04-15 22:02 45.59034 -122.58588 29 ft 18 kts 270°
2026-04-15 22:03 45.59033 -122.58656 29 ft 2 kts 269°
2026-04-15 22:03 45.59033 -122.58662 29 ft 2 kts 269°
2026-04-15 22:03 45.59033 -122.58694 29 ft 5 kts 269°
2026-04-15 22:03 45.59046 -122.58765 29 ft 10 kts 298°
2026-04-15 22:04 45.59089 -122.58877 30 ft 15 kts 299°
2026-04-15 22:04 45.59146 -122.59023 30 ft 18 kts 298°
2026-04-15 22:04 45.59209 -122.59186 30 ft 19 kts 299°
2026-04-15 22:04 45.59271 -122.59344 29 ft 18 kts 299°
2026-04-15 22:05 45.59333 -122.59497 29 ft 17 kts 301°
2026-04-15 22:05 45.59369 -122.59627 28 ft 8 kts 249°
2026-04-15 22:05 45.59339 -122.59689 28 ft 9 kts 234°
2026-04-15 22:05 45.59299 -122.59766 27 ft 11 kts 229°
2026-04-15 22:06 45.59231 -122.59832 27 ft 13 kts 208°
2026-04-15 22:06 45.59153 -122.59902 26 ft 14 kts 230°
2026-04-15 22:06 45.59138 -122.60020 26 ft 11 kts 258°
2026-04-15 22:06 45.59091 -122.60098 29 ft 10 kts 212°
2026-04-15 22:07 45.59032 -122.60147 26 ft 9 kts 210°
2026-04-15 22:07 45.58977 -122.60177 28 ft 8 kts 174°
2026-04-15 22:07 45.58941 -122.60132 26 ft 7 kts 118°
2026-04-15 22:07 45.58916 -122.60068 27 ft 8 kts 119°
2026-04-15 22:08 45.58889 -122.60001 26 ft 8 kts 119°
2026-04-15 22:08 45.58862 -122.59930 28 ft 8 kts 119°
2026-04-15 22:08 45.58832 -122.59855 26 ft 9 kts 118°
2026-04-15 22:08 45.58818 -122.59818 26 ft 1 kts 117°
2026-04-15 22:09 45.58817 -122.59811 26 ft 1 kts 100°
2026-04-15 22:09 45.58818 -122.59802 26 ft 1 kts 70°
2026-04-15 22:09 45.58827 -122.59787 26 ft 3 kts 40°
2026-04-15 22:09 45.58854 -122.59765 26 ft 5 kts 28°
2026-04-15 22:10 45.58878 -122.59746 26 ft 2 kts 29°
2026-04-15 22:10 45.58881 -122.59743 26 ft 0 kts 29°